Погода в Седльце

Польша     52°10′05″N   22°16′27″E
темп.,
°C
ветер,
м/с
пор.,
м/с
влажн.,
%
обл.,
%
осадки,
мм/ч
давл.,
гПа
погр.,
м
28 сентября, вт
вт2823:00+8вюв411845 0.0 1024288
02:00+7в410915 0.0 1025239
05:00+6вюв49943 0.0 1025198
08:00+7вюв510836 0.0 1025308
11:00+13вюв57615 0.0 1026803
14:00+15вюв565494 0.0 10261195
17:00+13вюв4762100 0.0 1026321
20:00+10в497491 0.0 1027203
29 сентября, ср
ср2923:00+8вюв4117673 0.0 1028271
02:00+7вюв4118239 0.0 1028225
05:00+6вюв410894 0.0 1027202
08:00+8вюв513792 0.0 1027372
11:00+14юв811544 0.0 10271112
14:00+16юв810480 0.0 10251360
17:00+14юв711555 0.0 1024902
20:00+11вюв615645 0.0 1025439
30 сентября, чт
чт3023:00+10юв7156621 0.0 1025436
02:00+9юв61469100 0.0 1024378
05:00+8юв61271100 0.0 1024329
08:00+9ююв51072100 0.1 1025323
11:00+8ю3491100 2.0 1026169
14:00+10юз2697100 3.7 1027235
17:00+10зсз2396100 3.0 1027134
20:00+9ююз2291100 3.8 102929
1 октября, пт
пт123:00+10зюз228983 0.0 102924
02:00+9юз118911 0.0 103011
05:00+7юв008715 0.0 102910
08:00+9вюв118088 0.0 102935
11:00+13юв336698 0.0 1029565
14:00+15вюв346654 0.0 1027966
17:00+13юв257976 0.0 1026214
20:00+10юв477844 0.0 1026119
2 октября, сб
сб223:00+11юв377884 0.0 1024157
02:00+9ююв389489 0.0 1023144
05:00+8ююв489162 0.0 1022140
08:00+9ююв498363 0.0 1021214
11:00+16ю68668 0.0 1020519
14:00+19ю675710 0.0 10191044
17:00+17ю596477 0.0 1018390
20:00+12ююв41078100 0.0 1019172